Year,Month,Day,Hour,Minute,Value (Times are PST for temperature in C)
2014,07,15,00,00,20.80
2014,07,15,00,01,20.80
2014,07,15,00,02,20.80
2014,07,15,00,03,20.80
2014,07,15,00,04,20.80
2014,07,15,00,05,20.80
2014,07,15,00,06,20.80
2014,07,15,00,07,20.80
2014,07,15,00,08,20.80
2014,07,15,00,09,20.80
2014,07,15,00,10,20.80
2014,07,15,00,11,20.80
2014,07,15,00,12,20.80
2014,07,15,00,13,20.90
2014,07,15,00,14,20.90
2014,07,15,00,15,20.90
2014,07,15,00,16,20.90
2014,07,15,00,17,20.90
2014,07,15,00,18,21.00
2014,07,15,00,19,21.00
2014,07,15,00,20,21.00
2014,07,15,00,21,21.00
2014,07,15,00,22,21.10
2014,07,15,00,23,21.10
2014,07,15,00,24,21.10
2014,07,15,00,25,21.10
2014,07,15,00,26,21.20
2014,07,15,00,27,21.20
2014,07,15,00,28,21.20
2014,07,15,00,29,21.20
2014,07,15,00,30,21.20
2014,07,15,00,31,21.20
2014,07,15,00,32,21.20
2014,07,15,00,33,21.20
2014,07,15,00,34,21.20
2014,07,15,00,35,21.20
2014,07,15,00,36,21.20
2014,07,15,00,37,21.10
2014,07,15,00,38,21.00
2014,07,15,00,39,21.00
2014,07,15,00,40,20.90
2014,07,15,00,41,20.80
2014,07,15,00,42,20.70
2014,07,15,00,43,20.60
2014,07,15,00,44,20.50
2014,07,15,00,45,20.40
2014,07,15,00,46,20.30
2014,07,15,00,47,20.20
2014,07,15,00,48,20.10
2014,07,15,00,49,19.90
2014,07,15,00,50,19.90
2014,07,15,00,51,19.70
2014,07,15,00,52,19.60
2014,07,15,00,53,19.50
2014,07,15,00,54,19.40
2014,07,15,00,55,19.30
2014,07,15,00,56,19.20
2014,07,15,00,57,19.10
2014,07,15,00,58,19.00
2014,07,15,00,59,18.90
2014,07,15,01,00,18.80
2014,07,15,01,01,18.70
2014,07,15,01,02,18.70
2014,07,15,01,03,18.60
2014,07,15,01,04,18.60
2014,07,15,01,05,18.60
2014,07,15,01,06,18.60
2014,07,15,01,07,18.60
2014,07,15,01,08,18.70
2014,07,15,01,09,18.70
2014,07,15,01,10,18.80
2014,07,15,01,11,18.80
2014,07,15,01,12,18.80
2014,07,15,01,13,18.90
2014,07,15,01,14,19.00
2014,07,15,01,15,19.00
2014,07,15,01,16,19.10
2014,07,15,01,17,19.20
2014,07,15,01,18,19.20
2014,07,15,01,19,19.30
2014,07,15,01,20,19.40
2014,07,15,01,21,19.40
2014,07,15,01,22,19.50
2014,07,15,01,23,19.50
2014,07,15,01,24,19.60
2014,07,15,01,25,19.70
2014,07,15,01,26,19.80
2014,07,15,01,27,19.80
2014,07,15,01,28,19.90
2014,07,15,01,29,20.00
2014,07,15,01,30,20.10
2014,07,15,01,31,20.10
2014,07,15,01,32,20.10
2014,07,15,01,33,20.20
2014,07,15,01,34,20.20
2014,07,15,01,35,20.20
2014,07,15,01,36,20.30
2014,07,15,01,37,20.30
2014,07,15,01,38,20.20
2014,07,15,01,39,20.00
2014,07,15,01,40,19.80
2014,07,15,01,41,19.60
2014,07,15,01,42,19.50
2014,07,15,01,43,19.30
2014,07,15,01,44,19.10
2014,07,15,01,45,19.00
2014,07,15,01,46,18.80
2014,07,15,01,47,18.70
2014,07,15,01,48,18.60
2014,07,15,01,49,18.50
2014,07,15,01,50,18.40
2014,07,15,01,51,18.30
2014,07,15,01,52,18.30
2014,07,15,01,53,18.20
2014,07,15,01,54,18.10
2014,07,15,01,55,18.10
2014,07,15,01,56,18.00
2014,07,15,01,57,18.00
2014,07,15,01,58,18.00
2014,07,15,01,59,18.00
2014,07,15,02,00,18.00
2014,07,15,02,01,18.00
2014,07,15,02,02,18.00
2014,07,15,02,03,18.00
2014,07,15,02,04,17.90
2014,07,15,02,05,17.80
2014,07,15,02,06,17.80
2014,07,15,02,07,17.70
2014,07,15,02,08,17.70
2014,07,15,02,09,17.70
2014,07,15,02,10,17.60
2014,07,15,02,11,17.60
2014,07,15,02,12,17.60
2014,07,15,02,13,17.50
2014,07,15,02,14,17.50
2014,07,15,02,15,17.50
2014,07,15,02,16,17.40
2014,07,15,02,17,17.30
2014,07,15,02,18,17.20
2014,07,15,02,19,17.10
2014,07,15,02,20,17.10
2014,07,15,02,21,17.00
2014,07,15,02,22,17.00
2014,07,15,02,23,16.90
2014,07,15,02,24,16.90
2014,07,15,02,25,16.90
2014,07,15,02,26,16.90
2014,07,15,02,27,16.80
2014,07,15,02,28,16.80
2014,07,15,02,29,16.80
2014,07,15,02,30,16.80
2014,07,15,02,31,16.80
2014,07,15,02,32,16.80
2014,07,15,02,33,16.80
2014,07,15,02,34,16.80
2014,07,15,02,35,16.80
2014,07,15,02,36,16.80
2014,07,15,02,37,16.80
2014,07,15,02,38,16.80
2014,07,15,02,39,16.80
2014,07,15,02,40,16.80
2014,07,15,02,41,16.80
2014,07,15,02,42,16.80
2014,07,15,02,43,16.80
2014,07,15,02,44,16.80
2014,07,15,02,45,16.80
2014,07,15,02,46,16.80
2014,07,15,02,47,16.80
2014,07,15,02,48,16.80
2014,07,15,02,49,16.80
2014,07,15,02,50,16.70
2014,07,15,02,51,16.70
2014,07,15,02,52,16.70
2014,07,15,02,53,16.70
2014,07,15,02,54,16.70
2014,07,15,02,55,16.70
2014,07,15,02,56,16.70
2014,07,15,02,57,16.70
2014,07,15,02,58,16.60
2014,07,15,02,59,16.60
2014,07,15,03,00,16.70
2014,07,15,03,01,16.70
2014,07,15,03,02,16.70
2014,07,15,03,03,16.70
2014,07,15,03,04,16.70
2014,07,15,03,05,16.70
2014,07,15,03,06,16.80
2014,07,15,03,07,16.80
2014,07,15,03,08,16.80
2014,07,15,03,09,16.80
2014,07,15,03,10,16.90
2014,07,15,03,11,16.90
2014,07,15,03,12,16.90
2014,07,15,03,13,16.90
2014,07,15,03,14,17.00
2014,07,15,03,15,17.00
2014,07,15,03,16,17.00
2014,07,15,03,17,17.10
2014,07,15,03,18,17.10
2014,07,15,03,19,17.10
2014,07,15,03,20,17.10
2014,07,15,03,21,17.10
2014,07,15,03,22,17.20
2014,07,15,03,23,17.20
2014,07,15,03,24,17.20
2014,07,15,03,25,17.20
2014,07,15,03,26,17.20
2014,07,15,03,27,17.20
2014,07,15,03,28,17.20
2014,07,15,03,29,17.30
2014,07,15,03,30,17.30
2014,07,15,03,31,17.30
2014,07,15,03,32,17.30
2014,07,15,03,33,17.40
2014,07,15,03,34,17.40
2014,07,15,03,35,17.40
2014,07,15,03,36,17.40
2014,07,15,03,37,17.50
2014,07,15,03,38,17.50
2014,07,15,03,39,17.50
2014,07,15,03,40,17.50
2014,07,15,03,41,17.60
2014,07,15,03,42,17.60
2014,07,15,03,43,17.60
2014,07,15,03,44,17.60
2014,07,15,03,45,17.60
2014,07,15,03,46,17.70
2014,07,15,03,47,17.70
2014,07,15,03,48,17.70
2014,07,15,03,49,17.80
2014,07,15,03,50,17.80
2014,07,15,03,51,17.80
2014,07,15,03,52,17.80
2014,07,15,03,53,17.80
2014,07,15,03,54,17.80
2014,07,15,03,55,17.80
2014,07,15,03,56,17.90
2014,07,15,03,57,17.90
2014,07,15,03,58,17.90
2014,07,15,03,59,17.90
2014,07,15,04,00,17.90
2014,07,15,04,01,17.90
2014,07,15,04,02,18.00
2014,07,15,04,03,18.00
2014,07,15,04,04,18.00
2014,07,15,04,05,18.00
2014,07,15,04,06,18.00
2014,07,15,04,07,18.00
2014,07,15,04,08,18.00
2014,07,15,04,09,18.00
2014,07,15,04,10,18.10
2014,07,15,04,11,18.10
2014,07,15,04,12,18.10
2014,07,15,04,13,18.10
2014,07,15,04,14,18.10
2014,07,15,04,15,18.10
2014,07,15,04,16,18.10
2014,07,15,04,17,18.10
2014,07,15,04,18,18.10
2014,07,15,04,19,18.10
2014,07,15,04,20,18.10
2014,07,15,04,21,18.10
2014,07,15,04,22,18.10
2014,07,15,04,23,18.10
2014,07,15,04,24,18.10
2014,07,15,04,25,18.10
2014,07,15,04,26,18.10
2014,07,15,04,27,18.10
2014,07,15,04,28,18.00
2014,07,15,04,29,18.00
2014,07,15,04,30,18.00
2014,07,15,04,31,17.90
2014,07,15,04,32,17.90
2014,07,15,04,33,17.90
2014,07,15,04,34,17.80
2014,07,15,04,35,17.80
2014,07,15,04,36,17.80
2014,07,15,04,37,17.70
2014,07,15,04,38,17.70
2014,07,15,04,39,17.60
2014,07,15,04,40,17.60
2014,07,15,04,41,17.50
2014,07,15,04,42,17.50
2014,07,15,04,43,17.40
2014,07,15,04,44,17.40
2014,07,15,04,45,17.30
2014,07,15,04,46,17.30
2014,07,15,04,47,17.30
2014,07,15,04,48,17.30
2014,07,15,04,49,17.30
2014,07,15,04,50,17.30
2014,07,15,04,51,17.30
2014,07,15,04,52,17.40
2014,07,15,04,53,17.40
2014,07,15,04,54,17.40
2014,07,15,04,55,17.50
2014,07,15,04,56,17.60
2014,07,15,04,57,17.60
2014,07,15,04,58,17.70
2014,07,15,04,59,17.80
2014,07,15,05,00,17.80
2014,07,15,05,01,17.80
2014,07,15,05,02,17.90
2014,07,15,05,03,17.90
2014,07,15,05,04,17.90
2014,07,15,05,05,18.00
2014,07,15,05,06,18.00
2014,07,15,05,07,18.10
2014,07,15,05,08,18.10
2014,07,15,05,09,18.10
2014,07,15,05,10,18.10
2014,07,15,05,11,18.20
2014,07,15,05,12,18.20
2014,07,15,05,13,18.20
2014,07,15,05,14,18.20
2014,07,15,05,15,18.20
2014,07,15,05,16,18.20
2014,07,15,05,17,18.20
2014,07,15,05,18,18.20
2014,07,15,05,19,18.10
2014,07,15,05,20,18.10
2014,07,15,05,21,18.10
2014,07,15,05,22,18.00
2014,07,15,05,23,17.90
2014,07,15,05,24,17.80
2014,07,15,05,25,17.80
2014,07,15,05,26,17.70
2014,07,15,05,27,17.60
2014,07,15,05,28,17.50
2014,07,15,05,29,17.40
2014,07,15,05,30,17.20
2014,07,15,05,31,17.10
2014,07,15,05,32,17.00
2014,07,15,05,33,16.90
2014,07,15,05,34,16.80
2014,07,15,05,35,16.80
2014,07,15,05,36,16.70
2014,07,15,05,37,16.70
2014,07,15,05,38,16.60
2014,07,15,05,39,16.60
2014,07,15,05,40,16.50
2014,07,15,05,41,16.50
2014,07,15,05,42,16.40
2014,07,15,05,43,16.40
2014,07,15,05,44,16.30
2014,07,15,05,45,16.30
2014,07,15,05,46,16.30
2014,07,15,05,47,16.20
2014,07,15,05,48,16.20
2014,07,15,05,49,16.20
2014,07,15,05,50,16.10
2014,07,15,05,51,16.10
2014,07,15,05,52,16.10
2014,07,15,05,53,16.10
2014,07,15,05,54,16.10
2014,07,15,05,55,16.10
2014,07,15,05,56,16.10
2014,07,15,05,57,16.10
2014,07,15,05,58,16.10
2014,07,15,05,59,16.10
2014,07,15,06,00,16.10
2014,07,15,06,01,16.10
2014,07,15,06,02,16.10
2014,07,15,06,03,16.10
2014,07,15,06,04,16.20
2014,07,15,06,05,16.20
2014,07,15,06,06,16.20
2014,07,15,06,07,16.20
2014,07,15,06,08,16.20
2014,07,15,06,09,16.20
2014,07,15,06,10,16.20
2014,07,15,06,11,16.30
2014,07,15,06,12,16.30
2014,07,15,06,13,16.30
2014,07,15,06,14,16.30
2014,07,15,06,15,16.30
2014,07,15,06,16,16.30
2014,07,15,06,17,16.40
2014,07,15,06,18,16.40
2014,07,15,06,19,16.40
2014,07,15,06,20,16.40
2014,07,15,06,21,16.40
2014,07,15,06,22,16.40
2014,07,15,06,23,16.50
2014,07,15,06,24,16.50
2014,07,15,06,25,16.50
2014,07,15,06,26,16.50
2014,07,15,06,27,16.50
2014,07,15,06,28,16.50
2014,07,15,06,29,16.60
2014,07,15,06,30,16.60
2014,07,15,06,31,16.60
2014,07,15,06,32,16.60
2014,07,15,06,33,16.60
2014,07,15,06,34,16.60
2014,07,15,06,35,16.60
2014,07,15,06,36,16.60
2014,07,15,06,37,16.60
2014,07,15,06,38,16.60
2014,07,15,06,39,16.60
2014,07,15,06,40,16.60
2014,07,15,06,41,16.60
2014,07,15,06,42,16.60
2014,07,15,06,43,16.60
2014,07,15,06,44,16.60
2014,07,15,06,45,16.70
2014,07,15,06,46,16.70
2014,07,15,06,47,16.70
2014,07,15,06,48,16.70
2014,07,15,06,49,16.70
2014,07,15,06,50,16.70
2014,07,15,06,51,16.70
2014,07,15,06,52,16.80
2014,07,15,06,53,16.80
2014,07,15,06,54,16.80
2014,07,15,06,55,16.80
2014,07,15,06,56,16.80
2014,07,15,06,57,16.80
2014,07,15,06,58,16.90
2014,07,15,06,59,16.90
2014,07,15,07,00,17.00
2014,07,15,07,01,17.00
2014,07,15,07,02,17.10
2014,07,15,07,03,17.10
2014,07,15,07,04,17.20
2014,07,15,07,05,17.20
2014,07,15,07,06,17.20
2014,07,15,07,07,17.30
2014,07,15,07,08,17.40
2014,07,15,07,09,17.50
2014,07,15,07,10,17.60
2014,07,15,07,11,17.80
2014,07,15,07,12,17.90
2014,07,15,07,13,18.00
2014,07,15,07,14,18.10
2014,07,15,07,15,18.20
2014,07,15,07,16,18.30
2014,07,15,07,17,18.40
2014,07,15,07,18,18.50
2014,07,15,07,19,18.50
2014,07,15,07,20,18.60
2014,07,15,07,21,18.60
2014,07,15,07,22,18.70
2014,07,15,07,23,18.70
2014,07,15,07,24,18.80
2014,07,15,07,25,18.80
2014,07,15,07,26,18.90
2014,07,15,07,27,18.90
2014,07,15,07,28,19.00
2014,07,15,07,29,19.00
2014,07,15,07,30,19.10
2014,07,15,07,31,19.20
2014,07,15,07,32,19.20
2014,07,15,07,33,19.30
2014,07,15,07,34,19.40
2014,07,15,07,35,19.40
2014,07,15,07,36,19.50
2014,07,15,07,37,19.60
2014,07,15,07,38,19.60
2014,07,15,07,39,19.60
2014,07,15,07,40,19.70
2014,07,15,07,41,19.70
2014,07,15,07,42,19.70
2014,07,15,07,43,19.70
2014,07,15,07,44,19.70
2014,07,15,07,45,19.80
2014,07,15,07,46,19.80
2014,07,15,07,47,19.90
2014,07,15,07,48,19.90
2014,07,15,07,49,20.00
2014,07,15,07,50,20.00
2014,07,15,07,51,20.00
2014,07,15,07,52,20.10
2014,07,15,07,53,20.10
2014,07,15,07,54,20.10
2014,07,15,07,55,20.10
2014,07,15,07,56,20.20
2014,07,15,07,57,20.20
2014,07,15,07,58,20.20
2014,07,15,07,59,20.20
2014,07,15,08,00,20.20
2014,07,15,08,01,20.20
2014,07,15,08,02,20.20
2014,07,15,08,03,20.20
2014,07,15,08,04,20.20
2014,07,15,08,05,20.20
2014,07,15,08,06,20.20
2014,07,15,08,07,20.30
2014,07,15,08,08,20.30
2014,07,15,08,09,20.30
2014,07,15,08,10,20.30
2014,07,15,08,11,20.30
2014,07,15,08,12,20.30
2014,07,15,08,13,20.30
2014,07,15,08,14,20.30
2014,07,15,08,15,20.30
2014,07,15,08,16,20.30
2014,07,15,08,17,20.20
2014,07,15,08,18,20.20
2014,07,15,08,19,20.20
2014,07,15,08,20,20.30
2014,07,15,08,21,20.30
2014,07,15,08,22,20.30
2014,07,15,08,23,20.30
2014,07,15,08,24,20.30
2014,07,15,08,25,20.30
2014,07,15,08,26,20.30
2014,07,15,08,27,20.20
2014,07,15,08,28,20.20
2014,07,15,08,29,20.20
2014,07,15,08,30,20.20
2014,07,15,08,31,20.20
2014,07,15,08,32,20.10
2014,07,15,08,33,20.10
2014,07,15,08,34,20.10
2014,07,15,08,35,20.10
2014,07,15,08,36,20.10
2014,07,15,08,37,20.10
2014,07,15,08,38,20.10
2014,07,15,08,39,20.10
2014,07,15,08,40,20.10
2014,07,15,08,41,20.10
2014,07,15,08,42,20.10
2014,07,15,08,43,20.00
2014,07,15,08,44,20.00
2014,07,15,08,45,20.00
2014,07,15,08,46,19.90
2014,07,15,08,47,19.90
2014,07,15,08,48,20.00
2014,07,15,08,49,20.00
2014,07,15,08,50,20.00
2014,07,15,08,51,20.10
2014,07,15,08,52,20.10
2014,07,15,08,53,20.10
2014,07,15,08,54,20.10
2014,07,15,08,55,20.10
2014,07,15,08,56,20.20
2014,07,15,08,57,20.20
2014,07,15,08,58,20.20
2014,07,15,08,59,20.30
2014,07,15,09,00,20.30
2014,07,15,09,01,20.30
2014,07,15,09,02,20.40
2014,07,15,09,03,20.40
2014,07,15,09,04,20.50
2014,07,15,09,05,20.50
2014,07,15,09,06,20.60
2014,07,15,09,07,20.60
2014,07,15,09,08,20.70
2014,07,15,09,09,20.70
2014,07,15,09,10,20.70
2014,07,15,09,11,20.70
2014,07,15,09,12,20.70
2014,07,15,09,13,20.80
2014,07,15,09,14,20.80
2014,07,15,09,15,20.80
2014,07,15,09,16,20.80
2014,07,15,09,17,20.80
2014,07,15,09,18,20.80
2014,07,15,09,19,20.80
2014,07,15,09,20,20.80
2014,07,15,09,21,20.80
2014,07,15,09,22,20.80
2014,07,15,09,23,20.80
2014,07,15,09,24,20.80
2014,07,15,09,25,20.80
2014,07,15,09,26,20.80
2014,07,15,09,27,20.80
2014,07,15,09,28,20.80
2014,07,15,09,29,20.80
2014,07,15,09,30,20.80
2014,07,15,09,31,20.90
2014,07,15,09,32,20.90
2014,07,15,09,33,20.90
2014,07,15,09,34,20.90
2014,07,15,09,35,21.00
2014,07,15,09,36,21.00
2014,07,15,09,37,21.00
2014,07,15,09,38,21.00
2014,07,15,09,39,21.00
2014,07,15,09,40,21.00
2014,07,15,09,41,21.00
2014,07,15,09,42,21.00
2014,07,15,09,43,21.00
2014,07,15,09,44,21.10
2014,07,15,09,45,21.10
2014,07,15,09,46,21.10
2014,07,15,09,47,21.10
2014,07,15,09,48,21.10
2014,07,15,09,49,21.10
2014,07,15,09,50,21.10
2014,07,15,09,51,21.20
2014,07,15,09,52,21.20
2014,07,15,09,53,21.20
2014,07,15,09,54,21.20
2014,07,15,09,55,21.30
2014,07,15,09,56,21.30
2014,07,15,09,57,21.40
2014,07,15,09,58,21.50
2014,07,15,09,59,21.60
2014,07,15,10,00,21.70
2014,07,15,10,01,21.80
2014,07,15,10,02,21.90
2014,07,15,10,03,21.90
2014,07,15,10,04,21.90
2014,07,15,10,05,21.90
2014,07,15,10,06,21.80
2014,07,15,10,07,21.80
2014,07,15,10,08,21.80
2014,07,15,10,09,21.80
2014,07,15,10,10,21.80
2014,07,15,10,11,21.80
2014,07,15,10,12,21.80
2014,07,15,10,13,21.90
2014,07,15,10,14,21.90
2014,07,15,10,15,21.90
2014,07,15,10,16,22.00
2014,07,15,10,17,22.00
2014,07,15,10,18,22.00
2014,07,15,10,19,21.90
2014,07,15,10,20,21.90
2014,07,15,10,21,21.90
2014,07,15,10,22,21.90
2014,07,15,10,23,22.00
2014,07,15,10,24,22.00
2014,07,15,10,25,22.00
2014,07,15,10,26,21.90
2014,07,15,10,27,21.90
2014,07,15,10,28,21.90
2014,07,15,10,29,21.90
2014,07,15,10,30,21.90
2014,07,15,10,31,21.90
2014,07,15,10,32,21.90
2014,07,15,10,33,21.80
2014,07,15,10,34,21.80
2014,07,15,10,35,21.90
2014,07,15,10,36,21.90
2014,07,15,10,37,22.00
2014,07,15,10,38,22.10
2014,07,15,10,39,22.20
2014,07,15,10,40,22.30
2014,07,15,10,41,22.30
2014,07,15,10,42,22.40
2014,07,15,10,43,22.40
2014,07,15,10,44,22.40
2014,07,15,10,45,22.50
2014,07,15,10,46,22.50
2014,07,15,10,47,22.50
2014,07,15,10,48,22.40
2014,07,15,10,49,22.40
2014,07,15,10,50,22.40
2014,07,15,10,51,22.30
2014,07,15,10,52,22.30
2014,07,15,10,53,22.30
2014,07,15,10,54,22.30
2014,07,15,10,55,22.40
2014,07,15,10,56,22.40
2014,07,15,10,57,22.50
2014,07,15,10,58,22.50
2014,07,15,10,59,22.60
2014,07,15,11,00,22.60
2014,07,15,11,01,22.70
2014,07,15,11,02,22.70
2014,07,15,11,03,22.70
2014,07,15,11,04,22.80
2014,07,15,11,05,22.80
2014,07,15,11,06,22.80
2014,07,15,11,07,22.80
2014,07,15,11,08,22.80
2014,07,15,11,09,22.80
2014,07,15,11,10,22.90
2014,07,15,11,11,23.00
2014,07,15,11,12,23.00
2014,07,15,11,13,23.00
2014,07,15,11,14,23.00
2014,07,15,11,15,23.10
2014,07,15,11,16,23.10
2014,07,15,11,17,23.10
2014,07,15,11,18,23.10
2014,07,15,11,19,23.20
2014,07,15,11,20,23.20
2014,07,15,11,21,23.30
2014,07,15,11,22,23.40
2014,07,15,11,23,23.40
2014,07,15,11,24,23.50
2014,07,15,11,25,23.60
2014,07,15,11,26,23.60
2014,07,15,11,27,23.70
2014,07,15,11,28,23.60
2014,07,15,11,29,23.60
2014,07,15,11,30,23.60
2014,07,15,11,31,23.60
2014,07,15,11,32,23.60
2014,07,15,11,33,23.60
2014,07,15,11,34,23.70
2014,07,15,11,35,23.70
2014,07,15,11,36,23.80
2014,07,15,11,37,23.90
2014,07,15,11,38,23.90
2014,07,15,11,39,23.90
2014,07,15,11,40,23.90
2014,07,15,11,41,23.90
2014,07,15,11,42,24.00
2014,07,15,11,43,24.00
2014,07,15,11,44,24.10
2014,07,15,11,45,24.10
2014,07,15,11,46,24.00
2014,07,15,11,47,24.00
2014,07,15,11,48,23.90
2014,07,15,11,49,23.90
2014,07,15,11,50,23.90
2014,07,15,11,51,23.80
2014,07,15,11,52,23.80
2014,07,15,11,53,23.90
2014,07,15,11,54,23.90
2014,07,15,11,55,23.90
2014,07,15,11,56,24.00
2014,07,15,11,57,24.00
2014,07,15,11,58,24.00
2014,07,15,11,59,24.00
2014,07,15,12,00,24.10
2014,07,15,12,01,24.10
2014,07,15,12,02,24.10
2014,07,15,12,03,24.20
2014,07,15,12,04,24.20
2014,07,15,12,05,24.20
2014,07,15,12,06,24.20
2014,07,15,12,07,24.20
2014,07,15,12,08,24.20
2014,07,15,12,09,24.10
2014,07,15,12,10,24.10
2014,07,15,12,11,24.20
2014,07,15,12,12,24.20
2014,07,15,12,13,24.20
2014,07,15,12,14,24.10
2014,07,15,12,15,24.20
2014,07,15,12,16,24.20
2014,07,15,12,17,24.30
2014,07,15,12,18,24.40
2014,07,15,12,19,24.50
2014,07,15,12,20,24.60
2014,07,15,12,21,24.70
2014,07,15,12,22,24.80
2014,07,15,12,23,24.80
2014,07,15,12,24,24.90
2014,07,15,12,25,24.90
2014,07,15,12,26,24.90
2014,07,15,12,27,25.00
2014,07,15,12,28,25.10
2014,07,15,12,29,25.10
2014,07,15,12,30,25.20
2014,07,15,12,31,25.30
2014,07,15,12,32,25.40
2014,07,15,12,33,25.50
2014,07,15,12,34,25.60
2014,07,15,12,35,25.60
2014,07,15,12,36,25.60
2014,07,15,12,37,25.60
2014,07,15,12,38,25.50
2014,07,15,12,39,25.40
2014,07,15,12,40,25.40
2014,07,15,12,41,25.40
2014,07,15,12,42,25.40
2014,07,15,12,43,25.40
2014,07,15,12,44,25.40
2014,07,15,12,45,25.40
2014,07,15,12,46,25.50
2014,07,15,12,47,25.50
2014,07,15,12,48,25.60
2014,07,15,12,49,25.70
2014,07,15,12,50,25.70
2014,07,15,12,51,25.70
2014,07,15,12,52,25.80
2014,07,15,12,53,25.80
2014,07,15,12,54,25.80
2014,07,15,12,55,25.80
2014,07,15,12,56,25.90
2014,07,15,12,57,26.00
2014,07,15,12,58,26.00
2014,07,15,12,59,26.10
2014,07,15,13,00,26.10
2014,07,15,13,01,26.20
2014,07,15,13,02,26.30
2014,07,15,13,03,26.40
2014,07,15,13,04,26.50
2014,07,15,13,05,26.50
2014,07,15,13,06,26.50
2014,07,15,13,07,26.50
2014,07,15,13,08,26.40
2014,07,15,13,09,26.40
2014,07,15,13,10,26.40
2014,07,15,13,11,26.40
2014,07,15,13,12,26.40
2014,07,15,13,13,26.40
2014,07,15,13,14,26.40
2014,07,15,13,15,26.40
2014,07,15,13,16,26.50
2014,07,15,13,17,26.50
2014,07,15,13,18,26.50
2014,07,15,13,19,26.50
2014,07,15,13,20,26.40
2014,07,15,13,21,26.40
2014,07,15,13,22,26.30
2014,07,15,13,23,26.30
2014,07,15,13,24,26.30
2014,07,15,13,25,26.20
2014,07,15,13,26,26.20
2014,07,15,13,27,26.30
2014,07,15,13,28,26.30
2014,07,15,13,29,26.30
2014,07,15,13,30,26.30
2014,07,15,13,31,26.40
2014,07,15,13,32,26.40
2014,07,15,13,33,26.50
2014,07,15,13,34,26.50
2014,07,15,13,35,26.60
2014,07,15,13,36,26.60
2014,07,15,13,37,26.70
2014,07,15,13,38,26.70
2014,07,15,13,39,26.70
2014,07,15,13,40,26.80
2014,07,15,13,41,26.80
2014,07,15,13,42,26.80
2014,07,15,13,43,26.80
2014,07,15,13,44,26.80
2014,07,15,13,45,26.80
2014,07,15,13,46,26.80
2014,07,15,13,47,26.70
2014,07,15,13,48,26.70
2014,07,15,13,49,26.70
2014,07,15,13,50,26.70
2014,07,15,13,51,26.80
2014,07,15,13,52,26.80
2014,07,15,13,53,26.80
2014,07,15,13,54,26.80
2014,07,15,13,55,26.90
2014,07,15,13,56,26.90
2014,07,15,13,57,26.90
2014,07,15,13,58,27.00
2014,07,15,13,59,27.10
2014,07,15,14,00,27.20
2014,07,15,14,01,27.20
2014,07,15,14,02,27.30
2014,07,15,14,03,27.30
2014,07,15,14,04,27.20
2014,07,15,14,05,27.20
2014,07,15,14,06,27.20
2014,07,15,14,07,27.10
2014,07,15,14,08,27.10
2014,07,15,14,09,27.00
2014,07,15,14,10,27.00
2014,07,15,14,11,26.90
2014,07,15,14,12,26.90
2014,07,15,14,13,26.90
2014,07,15,14,14,26.90
2014,07,15,14,15,27.00
2014,07,15,14,16,27.00
2014,07,15,14,17,27.00
2014,07,15,14,18,27.10
2014,07,15,14,19,27.10
2014,07,15,14,20,27.10
2014,07,15,14,21,27.10
2014,07,15,14,22,27.00
2014,07,15,14,23,26.90
2014,07,15,14,24,26.90
2014,07,15,14,25,26.90
2014,07,15,14,26,26.90
2014,07,15,14,27,26.80
2014,07,15,14,28,26.70
2014,07,15,14,29,26.60
2014,07,15,14,30,26.60
2014,07,15,14,31,26.60
2014,07,15,14,32,26.50
2014,07,15,14,33,26.50
2014,07,15,14,34,26.40
2014,07,15,14,35,26.30
2014,07,15,14,36,26.20
2014,07,15,14,37,26.20
2014,07,15,14,38,26.20
2014,07,15,14,39,26.20
2014,07,15,14,40,26.20
2014,07,15,14,41,26.20
2014,07,15,14,42,26.20
2014,07,15,14,43,26.30
2014,07,15,14,44,26.40
2014,07,15,14,45,26.40
2014,07,15,14,46,26.40
2014,07,15,14,47,26.40
2014,07,15,14,48,26.40
2014,07,15,14,49,26.40
2014,07,15,14,50,26.40
2014,07,15,14,51,26.40
2014,07,15,14,52,26.40
2014,07,15,14,53,26.40
2014,07,15,14,54,26.40
2014,07,15,14,55,26.50
2014,07,15,14,56,26.50
2014,07,15,14,57,26.60
2014,07,15,14,58,26.60
2014,07,15,14,59,26.60
2014,07,15,15,00,26.70
2014,07,15,15,01,26.70
2014,07,15,15,02,26.70
2014,07,15,15,03,26.70
2014,07,15,15,04,26.70
2014,07,15,15,05,26.70
2014,07,15,15,06,26.80
2014,07,15,15,07,26.80
2014,07,15,15,08,27.00
2014,07,15,15,09,27.10
2014,07,15,15,10,27.30
2014,07,15,15,11,27.40
2014,07,15,15,12,27.50
2014,07,15,15,13,27.50
2014,07,15,15,14,27.60
2014,07,15,15,15,27.70
2014,07,15,15,16,27.80
2014,07,15,15,17,27.80
2014,07,15,15,18,27.90
2014,07,15,15,19,28.00
2014,07,15,15,20,28.20
2014,07,15,15,21,28.30
2014,07,15,15,22,28.50
2014,07,15,15,23,28.60
2014,07,15,15,24,28.60
2014,07,15,15,25,28.70
2014,07,15,15,26,28.70
2014,07,15,15,27,28.60
2014,07,15,15,28,28.60
2014,07,15,15,29,28.50
2014,07,15,15,30,28.50
2014,07,15,15,31,28.40
2014,07,15,15,32,28.30
2014,07,15,15,33,28.40
2014,07,15,15,34,28.40
2014,07,15,15,35,28.50
2014,07,15,15,36,28.40
2014,07,15,15,37,28.40
2014,07,15,15,38,28.30
2014,07,15,15,39,28.20
2014,07,15,15,40,28.10
2014,07,15,15,41,28.10
2014,07,15,15,42,28.00
2014,07,15,15,43,28.00
2014,07,15,15,44,27.90
2014,07,15,15,45,27.80
2014,07,15,15,46,27.70
2014,07,15,15,47,27.60
2014,07,15,15,48,27.50
2014,07,15,15,49,27.40
2014,07,15,15,50,27.30
2014,07,15,15,51,27.20
2014,07,15,15,52,27.20
2014,07,15,15,53,27.20
2014,07,15,15,54,27.20
2014,07,15,15,55,27.30
2014,07,15,15,56,27.30
2014,07,15,15,57,27.40
2014,07,15,15,58,27.50
2014,07,15,15,59,27.60
2014,07,15,16,00,27.60
2014,07,15,16,01,27.60
2014,07,15,16,02,27.60
2014,07,15,16,03,27.60
2014,07,15,16,04,27.60
2014,07,15,16,05,27.50
2014,07,15,16,06,27.50
2014,07,15,16,07,27.40
2014,07,15,16,08,27.40
2014,07,15,16,09,27.40
2014,07,15,16,10,27.50
2014,07,15,16,11,27.50
2014,07,15,16,12,27.60
2014,07,15,16,13,27.70
2014,07,15,16,14,27.70
2014,07,15,16,15,27.60
2014,07,15,16,16,27.60
2014,07,15,16,17,27.50
2014,07,15,16,18,27.40
2014,07,15,16,19,27.40
2014,07,15,16,20,27.40
2014,07,15,16,21,27.40
2014,07,15,16,22,27.50
2014,07,15,16,23,27.50
2014,07,15,16,24,27.60
2014,07,15,16,25,27.60
2014,07,15,16,26,27.60
2014,07,15,16,27,27.70
2014,07,15,16,28,27.70
2014,07,15,16,29,27.70
2014,07,15,16,30,27.70
2014,07,15,16,31,27.70
2014,07,15,16,32,27.70
2014,07,15,16,33,27.70
2014,07,15,16,34,27.70
2014,07,15,16,35,27.60
2014,07,15,16,36,27.50
2014,07,15,16,37,27.50
2014,07,15,16,38,27.50
2014,07,15,16,39,27.40
2014,07,15,16,40,27.40
2014,07,15,16,41,27.40
2014,07,15,16,42,27.40
2014,07,15,16,43,27.40
2014,07,15,16,44,27.30
2014,07,15,16,45,27.30
2014,07,15,16,46,27.20
2014,07,15,16,47,27.20
2014,07,15,16,48,27.10
2014,07,15,16,49,27.20
2014,07,15,16,50,27.20
2014,07,15,16,51,27.20
2014,07,15,16,52,27.30
2014,07,15,16,53,27.30
2014,07,15,16,54,27.30
2014,07,15,16,55,27.30
2014,07,15,16,56,27.30
2014,07,15,16,57,27.30
2014,07,15,16,58,27.20
2014,07,15,16,59,27.20
2014,07,15,17,00,27.10
2014,07,15,17,01,27.20
2014,07,15,17,02,27.20
2014,07,15,17,03,27.20
2014,07,15,17,04,27.30
2014,07,15,17,05,27.30
2014,07,15,17,06,27.30
2014,07,15,17,07,27.40
2014,07,15,17,08,27.40
2014,07,15,17,09,27.50
2014,07,15,17,10,27.60
2014,07,15,17,11,27.70
2014,07,15,17,12,27.80
2014,07,15,17,13,27.90
2014,07,15,17,14,27.90
2014,07,15,17,15,27.90
2014,07,15,17,16,27.80
2014,07,15,17,17,27.80
2014,07,15,17,18,27.80
2014,07,15,17,19,27.80